STARLINK-3769, 52300

Orbit data source: Space-Track

STARLINK-3769, 52300 is a payload satellite owned by SpaceX/Seattle (US) in LEO that was launched on Thu, 21 Apr 2022 UTC via an FALCON 9 launch vehicle from the Air Force Eastern Test Range (AFETR). Payload-class satellites include a variety of spacecraft equipped with specific instruments for various scientific and technological missions. These include communications satellites like Starlink; space stations such as the ISS; scientific satellites like the Hubble; Earth observation satellites from companies like Planet Labs, Umbra, and HawkEye 360; GPS; miniature CubeSats for education and research; and military/defense satellites.

Loading next visibility...
Identifier
52300, 2022-041AR
Orbit
LEO
Country
Flag of USUS
Related business
Manufacturer
SpaceX/Seattle
Mission
Operational Commercial Communications
Bus & Motor
STARLINK, Unknown motor
Mass
297 kg wet, ~275 kg dry
Launch date (UTC)
2022-04-21 (4 years ago)
Launch vehicle
FALCON 9
Launch site
Air Force Eastern Test Range (AFETR)
Object type
Payload
Rocket body
Debris
Shape & HBR
Box + 1 Pan, 10.1 m
Radar Cross Section
11.087 m², Large (>1 m²)

Expand to show TLE details & history
Last TLE update: 5 hours ago

TLE from 5 hours ago
0 STARLINK-3769
1 52300U 22041AR  26193.16668980  .00058094  00000-0  27054-2 0  9990
2 52300  53.1600 259.6918 0001714  43.3310  34.5694 15.19382238  5631
Epoch: 2026-07-12T04:00Z
TLE epoch observation values (Epoch: 2026-07-12T04:00:01.998Z)
Latitude
51.64639°
Longitude
-20.06424°
Altitude
512.936 km
Speed
7.614 km/s
True Right ascension
22h 00m 03s
True Declination
51° 28' 23"
Sunlit
Object was in daylight at epoch
Visualization orbit readout
Latitude
Unknown
Longitude
Unknown
Altitude
Unknown
Speed
Unknown
Apparent Right ascension
Unknown
Apparent Declination
Unknown
Sunlit
N/A
Visualization observer readout
Local Sidereal Time
21:02:22
Azimuth
Unknown
Elevation
Unknown
Doppler factor
Unknown
Orbital elements
Apogee altitude
509.142 km
Perigee altitude
506.781 km
Semi-major axis
6,886.099 km
Eccentricity
0.00017
Inclination
53.16°
RAAN
259.6918°
Arg. of periapsis
43.331°
True anomaly
34.58055°
Mean anomaly
34.5694°
Eccentric anomaly
34.57497°
Mean motion
3.79825 °/min
Orbital period
94.78 mins
BSTAR
0.0027054
Loading maneuver chart data...
Computing Atmospheric mass density...
Loading historical data...
Loading historical data...
Loading historical data...
Loading historical data...
Loading historical data...
Loading historical data...
Loading historical data...

Documentation

Showing up to 5 results
|